Grand Island, NE

10:06 AM CDT on April 23, 2017 (GMT -0500)
Central Nebraska Regional

Weather History for KGRI - August, 2013

Change the Weather History Date:

Thursday, August 29, 2013

  Actual Average Record
Temperature  
Mean Temperature 84 °F 72 °F  
Max Temperature 96 °F 84 °F 102 °F (1945)
Min Temperature 71 °F 60 °F 40 °F (1946)
Degree Days  
Heating Degree Days 0 1  
Month to date heating degree days 0 2  
Since 1 June heating degree days 24 28  
Since 1 July heating degree days 3 4  
Cooling Degree Days 19 7  
Month to date cooling degree days 316 273  
Year to date cooling degree days 1031 900  
Since 1 June cooling degree days 936 835  
Growing Degree Days 34 (Base 50)    
Moisture  
Dew Point 70 °F    
Average Humidity 66    
Maximum Humidity 90    
Minimum Humidity 42    
Precipitation  
Precipitation 0.00 in 0.09 in 2.28 in (1965)
Month to date precipitation 2.99 2.95  
Year to date precipitation 19.38 20.60  
Snow  
Snow 0.00 in 0.00 in - ()
Month to date snowfall 0.0 0.0  
Since 1 June snowfall 0.0 0.0  
Since 1 July snowfall 0.0 0.0  
Snow Depth 0.00 in    
Sea Level Pressure  
Sea Level Pressure 29.93 in    
Wind  
Wind Speed 8 mph (SSE)    
Max Wind Speed 15 mph    
Max Gust Speed 20 mph    
Visibility 10 miles    
Events      
T = Trace of Precipitation, MM = Missing Value Source: NWS Daily Summary

Daily Weather History Graph

Daily Weather History Graph

Search for Another Location

Airport or City:

Trip Planner

Search our weather history database for the weather conditions in past years. The results will help you decide how hot, cold, wet, or windy it might be!

Date:

Astronomy

Aug. 29, 2013 Rise Set
Actual Time 6:57 AM CDT 8:10 PM CDT
Civil Twilight 6:28 AM CDT 8:38 PM CDT
Nautical Twilight 5:54 AM CDT 9:12 PM CDT
Astronomical Twilight 5:19 AM CDT 9:47 PM CDT
Moon 12:48 AM CDT (8/29) 3:41 PM CDT (8/29)
Length of Visible Light 14h 09m
Length of Day
13h 12m
Last Quarter, 38% of the Moon is Illuminated
Aug 29
Last Quarter
Sep 5
New
Sep 12
First Quarter
Sep 19
Full
Sep 26
Last Quarter

Hourly Weather History & Observations

Time (CDT) Temp. Heat Index Dew Point Humidity Pressure Visibility Wind Dir Wind Speed Gust Speed Precip Events Conditions
12:53 AM 72.0 °F - 68.0 °F 87% 29.98 in 10.0 mi South 6.9 mph - N/A   Clear
1:53 AM 73.0 °F - 68.0 °F 84% 29.97 in 10.0 mi South 6.9 mph - N/A   Clear
2:53 AM 72.0 °F - 68.0 °F 87% 29.96 in 10.0 mi South 4.6 mph - N/A   Clear
3:53 AM 72.0 °F - 68.0 °F 87% 29.96 in 10.0 mi SSE 6.9 mph - N/A   Clear
4:53 AM 72.0 °F - 68.0 °F 87% 29.94 in 10.0 mi SSE 6.9 mph - N/A   Clear
5:53 AM 73.0 °F - 69.1 °F 87% 29.94 in 10.0 mi South 8.1 mph - N/A   Clear
6:53 AM 72.0 °F - 68.0 °F 87% 29.95 in 10.0 mi SSE 6.9 mph - N/A   Clear
7:53 AM 73.0 °F - 69.1 °F 87% 29.96 in 10.0 mi SSE 9.2 mph - N/A   Clear
8:53 AM 75.9 °F - 70.0 °F 82% 29.96 in 10.0 mi South 8.1 mph - N/A   Clear
9:53 AM 80.1 °F 83.2 °F 70.0 °F 71% 29.96 in 10.0 mi South 8.1 mph - N/A   Clear
10:53 AM 84.0 °F 89.0 °F 71.1 °F 65% 29.96 in 10.0 mi SSE 5.8 mph - N/A   Clear
11:53 AM 88.0 °F 94.7 °F 72.0 °F 59% 29.95 in 10.0 mi SSE 8.1 mph - N/A   Clear
12:53 PM 91.0 °F 98.2 °F 72.0 °F 53% 29.94 in 10.0 mi SSE 9.2 mph - N/A   Clear
1:53 PM 95.0 °F 102.5 °F 71.1 °F 46% 29.92 in 10.0 mi SSE 10.4 mph - N/A   Clear
2:53 PM 96.1 °F 102.9 °F 70.0 °F 43% 29.91 in 10.0 mi SSE 12.7 mph - N/A   Clear
3:53 PM 96.1 °F 102.9 °F 70.0 °F 43% 29.90 in 10.0 mi SSE 13.8 mph - N/A   Clear
4:53 PM 96.1 °F 101.6 °F 69.1 °F 41% 29.89 in 10.0 mi SSE 9.2 mph - N/A   Clear
5:53 PM 93.9 °F 100.3 °F 70.0 °F 46% 29.88 in 10.0 mi SE 9.2 mph - N/A   Clear
6:53 PM 91.9 °F 98.4 °F 71.1 °F 50% 29.87 in 10.0 mi SE 6.9 mph - N/A   Clear
7:53 PM 87.1 °F 94.5 °F 73.0 °F 63% 29.88 in 10.0 mi SE 5.8 mph - N/A   Clear
8:53 PM 82.9 °F 88.0 °F 72.0 °F 69% 29.89 in 10.0 mi SE 5.8 mph - N/A   Clear
9:53 PM 81.0 °F 85.2 °F 72.0 °F 74% 29.90 in 10.0 mi SE 5.8 mph - N/A   Clear
10:53 PM 79.0 °F - 71.1 °F 77% 29.89 in 10.0 mi SSE 5.8 mph - N/A   Clear
11:53 PM 77.0 °F - 70.0 °F 79% 29.89 in 10.0 mi SSE 4.6 mph - N/A   Clear